Location: ????
(55.5675°N, 37.6272°E)
Time: 21:36:16
(UTC+00:00)

USA 281 - Pass Details

Date: 14 April 2026
Orbit: 1079 x 1080 km, 106.0° (Epoch: 5 January)

Event Time Altitude Azimuth Distance (km) Brightness Sun altitude
Exits shadow 21:54:57 23° 125° (SE) 2,132 4.5 -24.6°
Maximum altitude 21:59:12 63° 52° (NE) 1,200 3.5 -24.5°
Drops below altitude 10° 22:05:41 10° 333° (NNW) 2,934 6.2 -24.3°
Sets 22:08:14 0° 331° (NNW) 3,893 6.9 -24.3°
